Gustavus, AK

7:56 AM AKST on February 27, 2017 (GMT -0900)
Gustavus

Weather History for PAGS - July, 2013

Change the Weather History Date:

Monday, July 22, 2013

  Actual Average Record
Temperature  
Mean Temperature 58 °F -  
Max Temperature 64 °F 64 °F 79 °F (1955)
Min Temperature 53 °F 48 °F 35 °F (1985)
Degree Days  
Heating Degree Days 6    
Growing Degree Days 8 (Base 50)    
Moisture  
Dew Point 54 °F    
Average Humidity 86    
Maximum Humidity 94    
Minimum Humidity 68    
Precipitation  
Precipitation 0.00 in - - ()
Sea Level Pressure  
Sea Level Pressure 30.04 in    
Wind  
Wind Speed 1 mph (SW)    
Max Wind Speed 8 mph    
Max Gust Speed -    
Visibility 10 miles    
Events      
Averages and records for this station are not official NWS values.
T = Trace of Precipitation, MM = Missing Value Source: NWS Daily Summary

Daily Weather History Graph

Daily Weather History Graph

Search for Another Location

Airport or City:

Trip Planner

Search our weather history database for the weather conditions in past years. The results will help you decide how hot, cold, wet, or windy it might be!

Date:

Astronomy

Jul. 22, 2013 Rise Set
Actual Time 4:33 AM AKDT 9:43 PM AKDT
Civil Twilight 3:32 AM AKDT 10:43 PM AKDT
Nautical Twilight 1:41 AM AKDT 12:36 AM AKDT
Astronomical Twilight Sun does not rise Sun does not rise
Moon 9:05 PM AKDT (7/22) 4:58 AM AKDT (7/22)
Length of Visible Light 19h 11m
Length of Day
17h 09m
Full, 100% of the Moon is Illuminated
Jul 22
Full
Jul 29
Last Quarter
Aug 6
New
Aug 14
First Quarter
Aug 20
Full

Hourly Weather History & Observations

Time (AKDT) Temp. Dew Point Humidity Pressure Visibility Wind Dir Wind Speed Gust Speed Precip Events Conditions
12:16 AM 55.4 °F 53.6 °F 94% 29.97 in 10.0 mi Calm Calm - N/A   Overcast
12:36 AM 55.4 °F 53.6 °F 94% 29.97 in 10.0 mi Calm Calm - N/A   Overcast
12:56 AM 55.4 °F 53.6 °F 94% 29.98 in 10.0 mi Calm Calm - N/A   Overcast
1:16 AM 55.4 °F 53.6 °F 94% 29.98 in 10.0 mi Calm Calm - N/A   Overcast
1:36 AM 55.4 °F 51.8 °F 88% 29.98 in 10.0 mi Calm Calm - N/A   Overcast
1:56 AM 55.4 °F 53.6 °F 94% 29.99 in 10.0 mi Calm Calm - N/A   Overcast
2:16 AM 55.4 °F 53.6 °F 94% 29.98 in 10.0 mi Calm Calm - N/A   Overcast
2:36 AM 55.4 °F 53.6 °F 94% 29.98 in 10.0 mi Calm Calm - N/A   Overcast
2:56 AM 55.4 °F 53.6 °F 94% 29.98 in 10.0 mi Calm Calm - N/A   Mostly Cloudy
3:16 AM 55.4 °F 51.8 °F 88% 29.99 in 10.0 mi Calm Calm - N/A   Overcast
3:36 AM 53.6 °F 51.8 °F 94% 29.98 in 10.0 mi Calm Calm - N/A   Overcast
3:56 AM 53.6 °F 51.8 °F 94% 29.99 in 10.0 mi Calm Calm - N/A   Overcast
4:16 AM 53.6 °F 51.8 °F 94% 29.99 in 10.0 mi Calm Calm - N/A   Overcast
4:36 AM 53.6 °F 51.8 °F 94% 29.99 in 10.0 mi Calm Calm - N/A   Overcast
4:56 AM 55.4 °F 53.6 °F 94% 29.99 in 10.0 mi Calm Calm - N/A   Overcast
5:16 AM 53.6 °F 51.8 °F 94% 29.99 in 9.0 mi Calm Calm - N/A   Overcast
5:36 AM 55.4 °F 53.6 °F 94% 29.99 in 10.0 mi Calm Calm - N/A   Overcast
5:56 AM 55.4 °F 53.6 °F 94% 30.00 in 4.0 mi Calm Calm - N/A   Overcast
6:16 AM 55.4 °F 53.6 °F 94% 30.00 in 4.0 mi NW 3.5 mph - N/A   Overcast
6:36 AM 55.4 °F 53.6 °F 94% 30.00 in 5.0 mi NW 3.5 mph - N/A   Overcast
6:56 AM 55.4 °F 53.6 °F 94% 30.01 in 10.0 mi NW 3.5 mph - N/A   Overcast
7:16 AM 55.4 °F 53.6 °F 94% 30.01 in 10.0 mi Calm Calm - N/A   Overcast
7:36 AM 55.4 °F 53.6 °F 94% 30.02 in 10.0 mi Calm Calm - N/A   Overcast
7:56 AM 55.4 °F 53.6 °F 94% 30.02 in 10.0 mi Calm Calm - N/A   Overcast
8:16 AM 55.4 °F 53.6 °F 94% 30.02 in 10.0 mi Calm Calm - N/A   Overcast
8:36 AM 55.4 °F 53.6 °F 94% 30.03 in 10.0 mi NW 3.5 mph - N/A   Overcast
8:56 AM 57.2 °F 53.6 °F 88% 30.03 in 10.0 mi NW 3.5 mph - N/A   Overcast
9:16 AM 57.2 °F 53.6 °F 88% 30.03 in 10.0 mi Calm Calm - N/A   Overcast
9:36 AM 57.2 °F 55.4 °F 94% 30.04 in 10.0 mi Calm Calm - N/A   Overcast
9:56 AM 57.2 °F 53.6 °F 88% 30.04 in 10.0 mi Calm Calm - N/A   Overcast
10:16 AM 57.2 °F 55.4 °F 94% 30.04 in 10.0 mi Calm Calm - N/A   Overcast
10:36 AM 59.0 °F 55.4 °F 88% 30.05 in 10.0 mi Calm Calm - N/A   Mostly Cloudy
10:56 AM 59.0 °F 55.4 °F 88% 30.05 in 10.0 mi Calm Calm - N/A   Overcast
11:16 AM 59.0 °F 55.4 °F 88% 30.05 in 10.0 mi Calm Calm - N/A   Overcast
11:36 AM 59.0 °F 55.4 °F 88% 30.06 in 10.0 mi Calm Calm - N/A   Overcast
11:56 AM 60.8 °F 55.4 °F 82% 30.06 in 10.0 mi Calm Calm - N/A   Overcast
12:16 PM 60.8 °F 55.4 °F 82% 30.06 in 10.0 mi NW 3.5 mph - N/A   Overcast
12:36 PM 60.8 °F 55.4 °F 82% 30.06 in 10.0 mi NNW 6.9 mph - N/A   Overcast
12:56 PM 60.8 °F 55.4 °F 82% 30.07 in 10.0 mi Calm Calm - N/A   Overcast
1:16 PM 60.8 °F 55.4 °F 82% 30.07 in 10.0 mi SW 5.8 mph - N/A   Overcast
1:36 PM 60.8 °F 55.4 °F 82% 30.07 in 10.0 mi SW 6.9 mph - N/A   Overcast
1:56 PM 60.8 °F 55.4 °F 82% 30.07 in 10.0 mi SW 5.8 mph - N/A   Overcast
2:16 PM 62.6 °F 55.4 °F 77% 30.07 in 10.0 mi SW 5.8 mph - N/A   Mostly Cloudy
2:36 PM 62.6 °F 55.4 °F 77% 30.07 in 10.0 mi WSW 4.6 mph - N/A   Partly Cloudy
2:56 PM 62.6 °F 55.4 °F 77% 30.07 in 10.0 mi SW 8.1 mph - N/A   Mostly Cloudy
3:16 PM 62.6 °F 55.4 °F 77% 30.07 in 10.0 mi SW 5.8 mph - N/A   Scattered Clouds
3:36 PM 62.6 °F 55.4 °F 77% 30.07 in 10.0 mi WSW 4.6 mph - N/A   Partly Cloudy
3:56 PM 64.4 °F 57.2 °F 77% 30.07 in 10.0 mi SSW 5.8 mph - N/A   Mostly Cloudy
4:16 PM 64.4 °F 57.2 °F 77% 30.07 in 10.0 mi SSW 5.8 mph - N/A   Mostly Cloudy
4:36 PM 64.4 °F 55.4 °F 73% 30.06 in 10.0 mi SW 6.9 mph - N/A   Mostly Cloudy
4:56 PM 64.4 °F 55.4 °F 73% 30.06 in 10.0 mi SW 6.9 mph - N/A   Scattered Clouds
5:16 PM 64.4 °F 55.4 °F 73% 30.06 in 10.0 mi SW 8.1 mph - N/A   Partly Cloudy
5:36 PM 62.6 °F 53.6 °F 72% 30.06 in 10.0 mi SSW 5.8 mph - N/A   Scattered Clouds
5:56 PM 62.6 °F 53.6 °F 72% 30.06 in 10.0 mi SW 3.5 mph - N/A   Scattered Clouds
6:16 PM 62.6 °F 53.6 °F 72% 30.06 in 10.0 mi SSW 3.5 mph - N/A   Partly Cloudy
6:36 PM 62.6 °F 53.6 °F 72% 30.05 in 10.0 mi Calm Calm - N/A   Clear
6:56 PM 64.4 °F 53.6 °F 68% 30.05 in 10.0 mi SW 3.5 mph - N/A   Clear
7:16 PM 64.4 °F 53.6 °F 68% 30.05 in 10.0 mi SW 5.8 mph - N/A   Partly Cloudy
7:36 PM 62.6 °F 53.6 °F 72% 30.06 in 10.0 mi WSW 3.5 mph - N/A   Partly Cloudy
7:56 PM 62.6 °F 53.6 °F 72% 30.05 in 10.0 mi WSW 3.5 mph - N/A   Partly Cloudy
8:16 PM 62.6 °F 55.4 °F 77% 30.05 in 10.0 mi ESE 3.5 mph - N/A   Clear
8:36 PM 62.6 °F 55.4 °F 77% 30.05 in 10.0 mi ESE 4.6 mph - N/A   Clear
8:56 PM 60.8 °F 55.4 °F 82% 30.06 in 10.0 mi SE 4.6 mph - N/A   Clear
9:16 PM 59.0 °F 53.6 °F 82% 30.06 in 10.0 mi ESE 3.5 mph - N/A   Clear
9:36 PM 59.0 °F 53.6 °F 82% 30.06 in 10.0 mi Calm Calm - N/A   Clear
9:56 PM 57.2 °F 53.6 °F 88% 30.06 in 10.0 mi Calm Calm - N/A   Clear
10:16 PM 57.2 °F 53.6 °F 88% 30.07 in 10.0 mi Calm Calm - N/A   Clear
10:36 PM 55.4 °F 53.6 °F 94% 30.07 in 10.0 mi Calm Calm - N/A   Clear
10:56 PM 55.4 °F 53.6 °F 94% 30.08 in 10.0 mi Calm Calm - N/A   Partly Cloudy
11:16 PM 55.4 °F 51.8 °F 88% 30.07 in 10.0 mi Calm Calm - N/A   Mostly Cloudy
11:36 PM 55.4 °F 51.8 °F 88% 30.07 in 10.0 mi Calm Calm - N/A   Overcast
11:56 PM 55.4 °F 51.8 °F 88% 30.07 in 10.0 mi Calm Calm - N/A   Overcast